Regional Weather Roundup
Issued by NWS Charleston, WV

Home | Current Version | Previous Version | Graphics & Text | Print | Product List | Glossary On
Versions: 1 2 3 4 5 6 7 8 9 10 11 12 13 14 15 16 17 18 19 20 21 22 23 24 25 26 27 28 29 30 31 32 33 34 35 36 37 38 39 40 41 42 43 44 45 46 47 48 49 50
000
ASUS41 KRLX 221810
RWRRLX
West Virginia Regional Weather Roundup
National Weather Service Charleston WV
200 PM EDT SAT APR 22 2017

Note: "fair" indicates few or no clouds below 12,000 feet with no
significant weather and/or obstructions to visibility.

WVZ003-221900-
Northern Panhandle of West Virginia

CITY           SKY/WX    TMP DP  RH WIND       PRES   REMARKS
WHEELING       CLOUDY    50  36  58 N7        30.05R
$$

WVZ009-221900-
Northwest West Virginia

CITY           SKY/WX    TMP DP  RH WIND       PRES   REMARKS
PARKERSBURG    CLOUDY    52  40  63 N9        30.08R
$$

WVZ006-221900-
Western West Virginia

CITY           SKY/WX    TMP DP  RH WIND       PRES   REMARKS
HUNTINGTON     CLOUDY    49  46  90 VRB6      30.02R
$$

WVZ015-221900-
West Central West Virginia

CITY           SKY/WX    TMP DP  RH WIND       PRES   REMARKS
CHARLESTON     CLOUDY    49  46  90 NE6       30.00F
$$

WVZ022-031-221900-
North Central West Virginia

CITY           SKY/WX    TMP DP  RH WIND       PRES   REMARKS
CLARKSBURG     RAIN      47  44  90 N8        30.03F FOG
MORGANTOWN     LGT RAIN  48  40  73 NW3       30.06R
$$

WVZ025-035-042-045-221900-
Southern West Virginia

CITY           SKY/WX    TMP DP  RH WIND       PRES   REMARKS
BECKLEY        LGT RAIN  48  46  93 NE7       29.97F
LOGAN          LGT RAIN  48  48 100 NE8G15    29.94F
BLUEFIELD      LGT RAIN  52  50  93 NW5       29.96F
LEWISBURG      LGT RAIN  53  51  92 W8        29.96R
$$

WVZ047-221900-
Northern Mountains of West Virginia

CITY           SKY/WX    TMP DP  RH WIND       PRES   REMARKS
ELKINS         RAIN      47  44  90 NW7       30.00S FOG
$$

WVZ052-221900-
Eastern Panhandle of West Virginia

CITY           SKY/WX    TMP DP  RH WIND       PRES   REMARKS
MARTINSBURG    LGT RAIN  50  47  89 NW8       30.00R FOG
PETERSBURG     LGT RAIN  51  49  92 SE3       30.00S
$$



USA.gov is the U.S. government's official web portal to all federal, state and local government web resources and services.